OBJECT A, 53346

Orbit data source: Space-Track

You're viewing an Uncataloged Satellite

Recently launched and/or uncataloged satellites may have evolving metadata. Metadata may include but not limited to: Owner, Maufacturer, Bus, Motor, and Mission.

OBJECT A, 53346 is a satellite owned by CAST (CN) in SSO that was launched on Thu, 04 Aug 2022 UTC via a CHANG ZHENG 4B launch vehicle from the Taiyaun Space Center, China (TSC). Unknown objects in Earth's orbit typically refer to objects detected orbiting the Earth but have not yet been identified or cataloged. These objects could be anything from previously untracked satellites, spent rocket stages, debris from satellite collisions, or even natural meteoroids temporarily captured by Earth's gravity.

Loading next visibility...
Identifier
53346, 2022-090A
Orbit
SSO
Country
Flag of CNCN / PRC
Related business
Manufacturer
CAST
Mission
Operational Civil Imaging
Bus & Motor
CAST-968?, Unknown motor
Mass
~1,500 kg wet, ~1,500 kg dry
Launch date (UTC)
2022-08-04 (4 years ago)
Launch vehicle
CHANG ZHENG 4B
Launch site
Taiyaun Space Center, China (TSC)
Object type
Unknown
Shape & HBR
Box + 2 Pan, 2.0 m
Radar Cross Section
2.315 m², Large (>1 m²)

Expand to show TLE details & history
Last TLE update: 22 hours ago

TLE from 22 hours ago
0 OBJECT A
1 53346U 22090A   26172.49982368  .00002594  00000-0  11852-3 0  9991
2 53346  97.3135 240.4871 0003909 161.9224 198.2152 15.21430737215462
Epoch: 2026-06-21T11:59Z
TLE epoch observation values (Epoch: 2026-06-21T11:59:44.765Z)
Latitude
-0.00004°
Longitude
150.85138°
Altitude
507.174 km
Speed
7.609 km/s
True Right ascension
16h 01m 56s
True Declination
0° 00' 00"
Sunlit
Object was in full shadow at epoch
Visualization orbit readout
Latitude
Unknown
Longitude
Unknown
Altitude
Unknown
Speed
Unknown
Apparent Right ascension
Unknown
Apparent Declination
Unknown
Sunlit
N/A
Visualization observer readout
Local Sidereal Time
21:24:17
Azimuth
Unknown
Elevation
Unknown
Doppler factor
Unknown
Orbital elements
Apogee altitude
501.172 km
Perigee altitude
495.796 km
Semi-major axis
6,876.621 km
Eccentricity
0.00039
Inclination
97.3135°
RAAN
240.4871°
Arg. of periapsis
161.9224°
True anomaly
198.2012°
Mean anomaly
198.2152°
Eccentric anomaly
198.2082°
Mean motion
3.8061 °/min
Orbital period
94.58 mins
BSTAR
0.00011852
Loading maneuver chart data...
Computing Atmospheric mass density...
Loading historical data...
Loading historical data...
Loading historical data...
Loading historical data...
Loading historical data...
Loading historical data...
Loading historical data...
Other satellites on launch #90 in the year 2022 (2022-08-04 UTC)

Documentation

Showing up to 5 results
|